Location: Gland
(49.0480°N, 3.4644°E)
Time: 14:54:30
(UTC+00:00)

Daily predictions for brighter satellites

Satellite Brightness Start Highest point End
(mag) Time Altitude Azimuth Time Altitude Azimuth Time Altitude Azimuth
Cosmos 2360 Rocket 3.6 20:25:08 10° NNW 20:30:03 29° NE 20:34:55 10° ESE
IRS-1A Rocket 4.3 20:25:01 10° SSE 20:30:30 80° ENE 20:36:03 10° NNW
MOS 1 Rocket 4.1 20:27:37 10° SE 20:32:47 48° ENE 20:37:54 10° N
Cosmos 2285 Rocket 4.3 20:28:24 10° SSW 20:34:45 79° WNW 20:41:12 10° NNE
Cosmos 2333 Rocket 3.6 20:29:49 10° NNW 20:34:48 29° NE 20:39:47 10° ESE
Cosmos 841 Rocket 4.2 20:30:15 10° NNW 20:35:17 43° ENE 20:40:18 10° SE
Atlas Centaur 2 4.3 20:31:50 10° SW 20:37:19 19° S 20:42:45 10° SE
Cosmos 1441 Rocket 3.2 20:34:20 10° N 20:37:54 58° ENE 20:41:28 10° SSE
SL-16 R/B 2.6 20:32:29 10° NNW 20:38:04 54° NE 20:43:36 10° SE
ERS-1 Rocket 3.0 20:34:16 10° SSE 20:39:16 76° ENE 20:44:19 10° NNW
Cosmos 1763 Rocket 3.8 20:34:14 10° NNW 20:39:28 67° WSW 20:44:36 10° S
Cosmos 2369 4.3 20:34:02 10° NW 20:39:38 57° WSW 20:45:13 10° S
Resurs 01 Rocket 3.9 20:37:57 10° SW 20:41:21 22° W 20:44:46 10° NW
RESURS DK-1 3.5 20:37:43 10° NNW 20:41:26 32° NE 20:45:07 10° ESE
Cosmos 2082 Rocket 2.4 20:37:44 10° SSW 20:43:28 82° WNW 20:49:13 10° NNE
Spot 2 Rocket 3.7 20:38:53 10° SSE 20:43:52 64° ENE 20:48:55 10° N
Cosmos 1933 Rocket 3.6 20:41:26 10° N 20:45:53 86° WSW 20:50:19 10° S
Cosmos 1470 2.8 20:42:49 10° NNW 20:46:30 72° W 20:50:11 10° S
SPOT 5 3.2 20:44:21 10° S 20:48:34 56° W 20:52:53 10° NNW
Cosmos 1300 3.9 20:46:57 10° NNE 20:49:58 25° ENE 20:52:53 10° SE
Cosmos 1908 3.1 20:50:06 10° N 20:53:42 86° W 20:57:19 10° S
Cosmos 1346 Rocket 4.0 20:55:08 10° N 20:58:30 28° ENE 21:01:35 11° SE
Cosmos 1674 3.8 20:57:09 10° SSW 21:00:27 40° WNW 21:03:45 10° N
ATLAS 2AS CENTAUR R/B 3.3 20:54:03 10° NW 21:00:48 52° NE 21:07:17 10° ESE
Meteor 1-22 Rocket 4.3 20:57:07 10° N 21:02:44 73° ENE 21:08:26 10° SSE
Cosmos 468 Rocket 4.4 21:01:27 10° NNW 21:06:36 58° WSW 21:11:40 10° S
Ariane Rocket 3.1 21:03:17 10° SSE 21:08:23 85° WSW 21:13:32 10° NNW
Cosmos 1758 3.7 21:06:00 10° N 21:09:47 46° ENE 21:12:54 14° SSE
Cosmos 1842 4.5 21:07:09 10° SW 21:10:35 39° WNW 21:14:04 10° N
Meteor 1-4 Rocket 4.4 21:10:02 10° E 21:10:43 11° E 21:11:24 10° ENE
Cosmos 1356 Rocket 4.2 21:09:22 13° SSE 21:12:39 34° E 21:16:28 10° NNE
COSMOS 2406 3.9 21:11:05 10° SW 21:16:46 59° WNW 21:22:28 10° NNE
SPOT 3 Rocket 3.6 21:12:14 10° SSE 21:17:20 79° WSW 21:22:33 10° NNW
Cosmos 1850 Rocket 4.5 21:13:36 10° S 21:18:29 41° ESE 21:23:21 10° NE
Meteor 1-13 Rocket 4.4 21:13:31 10° SSW 21:19:21 82° WNW 21:25:05 10° N
Cosmos 1707 Rocket 4.1 21:16:10 13° SSE 21:19:45 42° E 21:23:57 10° NNE
SL-27 R/B 3.6 21:19:33 16° ESE 21:20:13 18° ESE 21:22:11 10° ENE
ARIANE 5 R/B 4.1 21:17:31 11° ESE 21:20:51 24° ENE 21:24:19 10° N
Cosmos 1980 Rocket 4.2 21:17:51 10° NW 21:22:03 22° W 21:26:13 10° SSW
Cosmos 2322 Rocket 2.3 21:17:01 10° NNW 21:22:42 72° ENE 21:27:28 15° SE
S3M 4.2 21:16:24 10° N 21:22:48 81° W 21:29:06 10° S
Spot 1 4.4 21:19:42 10° NNE 21:24:06 57° ESE 21:28:33 11° S
Cosmos 1655 Rocket 4.1 21:23:13 10° S 21:29:34 71° E 21:35:58 10° NNE
SJ 16-02 2.6 21:28:53 17° SE 21:31:02 24° E 21:34:31 10° NE
Landsat 5 3.4 21:27:34 10° NNE 21:31:31 62° ESE 21:35:02 13° S
Cosmos 2278 4.2 21:25:57 10° NW 21:31:32 54° WSW 21:36:25 13° S
Cosmos 1741 Rocket 4.2 21:31:51 10° S 21:36:58 56° ESE 21:42:10 10° NNE
Tiangong 0.2 21:36:12 10° SW 21:37:24 12° SSW 21:37:28 12° SSW
USA 281 3.6 21:32:45 13° SE 21:38:27 57° NE 21:44:53 10° NNW
Cosmos 2266 Rocket 4.3 21:33:01 10° SSW 21:39:20 73° WNW 21:45:45 10° N
Cosmos 1400 Rocket 3.0 21:35:39 10° SSW 21:39:32 69° WNW 21:43:23 10° N
COSMOS 2428 4.3 21:35:46 10° NNW 21:40:34 27° NE 21:45:20 10° ESE
Cosmos 1733 Rocket 3.0 21:36:39 10° N 21:41:05 80° E 21:44:16 19° SSE
MetOp-A 4.1 21:37:25 16° SSE 21:41:36 88° WSW 21:46:55 10° NNW
Okean 3 3.8 21:39:26 19° SSE 21:42:05 45° E 21:46:04 10° NNE
GP-B 4.4 21:38:41 10° NNE 21:42:23 26° E 21:44:46 17° SE
Terra 3.1 21:38:23 10° SSW 21:42:40 34° W 21:46:59 10° NNW
Cosmos 968 Rocket 3.8 21:41:01 15° S 21:45:02 48° ESE 21:50:00 10° NNE
Cosmos 1814 Rocket 4.3 21:40:54 10° NNW 21:46:08 59° ENE 21:50:00 18° SE
SL-4 R/B 2.5 21:43:13 10° W 21:47:05 60° N 21:51:12 10° ENE
Cosmos 2228 Rocket 3.1 21:44:42 13° S 21:48:47 90° W 21:53:23 10° N
Cosmos 2219 Rocket 2.7 21:45:50 10° NNW 21:51:24 53° NE 21:55:47 16° SE
Cosmos 1908 Rocket 4.5 21:48:17 10° N 21:52:21 36° ENE 21:54:53 19° SE
Cosmos 1315 Rocket 3.7 21:51:04 22° SE 21:52:55 33° E 21:56:32 10° NNE
ATLAS CENTAUR R/B 1.3 21:52:13 20° S 21:54:18 44° ESE 21:57:44 10° NE
Meteor 2-10 Rocket 4.1 21:50:32 10° NNW 21:56:04 56° W 22:00:34 14° S
SeaSat 1 4.4 21:52:54 10° SSW 21:56:24 19° WSW 21:59:55 10° WNW
Cosmos 1953 2.9 21:55:12 10° N 21:58:54 43° ENE 22:00:51 23° SE
Cosmos 1455 2.8 21:58:48 10° N 22:02:07 38° ENE 22:03:41 24° SE
H-2A R/B 3.7 21:59:30 17° ESE 22:02:09 34° ENE 22:06:01 10° N
Cosmos 1242 Rocket 3.8 22:04:20 17° E 22:04:26 17° E 22:06:23 10° NE
USA 234 3.7 21:59:38 10° NE 22:06:07 66° NNW 22:12:34 10° WSW
Okean 1-7 3.3 22:04:58 24° SSE 22:07:20 53° E 22:11:34 10° NNE
BREEZE-M DEB (TANK) 2.8 22:06:15 10° W 22:08:19 36° SSW 22:09:08 30° SSE
CZ-2C R/B 3.8 22:04:48 10° NNE 22:09:09 54° E 22:11:36 24° S
Cosmos 2360 Rocket 2.4 22:08:51 10° NNW 22:14:28 63° WSW 22:18:06 22° S
ALOS 2 4.0 22:11:53 16° ESE 22:14:35 28° ENE 22:18:21 10° N
RESURS DK-1 3.6 22:15:31 10° NW 22:19:06 31° WSW 22:21:10 19° SSW
Cosmos 2333 Rocket 2.4 22:13:50 10° NW 22:19:31 63° WSW 22:23:08 23° S
SL-16 R/B 3.6 22:17:03 10° NW 22:21:51 29° WSW 22:25:47 14° SSW
Cosmos 1300 4.4 22:21:41 10° NW 22:24:37 24° W 22:26:54 13° SW
Atlas Centaur 2 4.3 22:20:09 10° SW 22:25:10 17° SSW 22:25:49 17° S
EXPRESS MD2 1.9 22:24:41 10° W 22:26:57 73° N 22:27:54 28° ENE
OPS 8737 3.9 22:24:54 10° NW 22:27:49 88° WSW 22:28:45 41° SE
SL-08 R/B 4.4 22:25:46 21° S 22:29:56 76° E 22:36:02 10° NNE
BREEZE-M DEB (TANK) 3.9 22:15:05 10° W 22:31:49 88° N 22:35:59 10° E
Aureole 3 4.1 22:30:50 18° SW 22:33:31 51° WNW 22:38:03 10° N
Cosmos 1346 Rocket 4.4 22:31:02 10° NW 22:34:17 26° W 22:36:35 15° SW
Cosmos 1703 Rocket 3.6 22:32:44 28° S 22:34:57 68° E 22:39:25 10° NNE
Cosmos 1833 4.2 22:30:08 12° SSW 22:35:20 88° WNW 22:41:00 10° NNE
DNEPR-1 R/B 4.3 22:29:39 10° NW 22:36:31 81° SW 22:39:56 25° SSE
Meteor 1-4 Rocket 3.1 22:41:49 24° SW 22:43:10 39° WNW 22:46:02 10° N
Cosmos 839 Rocket 4.2 22:37:10 10° NW 22:44:03 63° WSW 22:47:42 25° SSE
Cosmos 1932 4.4 22:38:31 13° SSW 22:44:10 73° SE 22:50:26 10° NE
Cosmos 2322 3.8 22:40:18 10° NNW 22:46:01 77° ENE 22:49:29 24° SE
Cosmos 2237 Rocket 3.6 22:41:55 10° NNW 22:47:01 32° NE 22:52:04 10° ESE
BlueWalker 3 3.8 22:50:03 17° ESE 22:50:03 17° ESE 22:51:25 10° E
ATLAS 2AS CENTAUR R/B 3.1 22:45:13 10° NW 22:51:40 46° WSW 22:55:16 24° S
SL-27 R/B 4.2 22:50:57 11° WSW 22:53:02 21° WNW 22:55:17 10° N
Cosmos 2227 Rocket 4.3 22:54:02 10° ESE 22:55:29 11° E 22:56:56 10° E
ARIANE 5 R/B 3.3 22:54:58 25° SSW 22:57:01 42° W 23:01:09 10° NNW
PSLV R/B 4.2 22:56:44 10° N 23:00:42 59° WNW 23:02:50 25° SW
Okean 2 4.3 23:00:22 20° SW 23:02:45 41° WNW 23:06:34 10° N
Cosmos 2322 Rocket 3.9 23:02:02 10° NW 23:06:10 21° W 23:09:15 14° SW
Cosmos 1570 Rocket 4.1 23:01:19 10° NNW 23:06:40 75° WSW 23:09:22 30° S
PSLV R/B 4.3 23:03:43 10° NNE 23:07:41 37° E 23:08:58 29° SE
Cosmos 1703 4.0 23:06:48 31° SE 23:07:41 36° E 23:11:05 10° NNE
Cosmos 1745 Rocket 4.0 23:05:11 25° S 23:09:07 89° W 23:15:32 10° N
SJ 16-02 2.5 23:05:36 13° SW 23:09:10 40° WNW 23:13:16 10° N
COSMOS 2455 3.4 23:08:59 27° SSE 23:11:29 40° ESE 23:17:04 10° NE
Cosmos 2297 Rocket 3.3 23:13:10 24° SE 23:15:13 30° ESE 23:20:04 10° NE
Nadezhda 1 Rocket 4.2 23:11:50 10° NNW 23:18:05 63° W 23:21:42 26° SSW
GP-B 4.2 23:15:36 10° NNW 23:19:38 36° W 23:22:05 20° SW
Cosmos 1408 1.9 23:22:14 66° SSW 23:22:35 83° WNW 23:25:36 10° N
USA 281 4.1 23:19:37 21° SSW 23:23:13 35° WSW 23:29:10 10° NW
COSMOS 2428 2.7 23:19:39 10° NNW 23:25:20 70° WSW 23:28:12 30° S
SL-4 R/B 2.2 23:22:05 10° WNW 23:26:09 74° NNE 23:30:26 10° E
GEOS 3 Rocket 4.1 23:24:51 10° NE 23:29:43 40° ESE 23:31:28 31° SSE
ATLAS CENTAUR R/B 3.3 23:29:10 10° W 23:32:07 24° NW 23:35:09 10° NNE
Cosmos 1782 Rocket 4.3 23:28:30 10° NNW 23:32:35 41° W 23:34:15 28° SW
Cosmos 1953 4.4 23:31:53 10° NW 23:34:22 17° W 23:35:58 13° WSW
Cosmos 2219 Rocket 3.4 23:30:13 10° NW 23:35:04 30° WSW 23:37:28 22° SW
Cosmos 1455 4.2 23:34:07 10° NW 23:36:13 15° W 23:37:24 13° WSW
Cosmos 1242 Rocket 4.0 23:35:32 17° W 23:36:22 20° WNW 23:38:31 10° NNW
H-2A R/B 3.8 23:35:29 23° SW 23:37:04 29° W 23:40:50 10° NW
Cosmos 2208 Rocket 4.3 23:32:17 10° NNW 23:37:22 55° WSW 23:39:34 31° SSW
Cosmos 1892 3.8 23:38:13 24° ESE 23:38:59 27° E 23:41:59 10° NNE
Cosmos 158 Rocket 4.3 23:34:39 10° NNW 23:39:52 56° WSW 23:42:07 32° S
Cosmos 371 Rocket 3.3 23:38:59 34° S 23:40:57 66° ESE 23:45:44 10° NNE
BREEZE-M DEB (TANK) 4.1 23:39:06 10° W 23:42:44 88° N 23:55:27 10° E
NOSS 8 (E) 4.3 23:45:43 43° SSW 23:46:48 82° SE 23:49:56 10° NE
Cosmos 773 Rocket 3.9 23:42:06 10° NNW 23:47:17 85° WSW 23:49:51 31° SSE
Cosmos 2151 Rocket 3.8 23:43:45 10° N 23:48:09 63° ENE 23:50:03 32° SSE
USA 234 4.4 23:42:29 10° ENE 23:48:38 45° N 23:54:46 10° WNW
ALOS 2 3.6 23:49:16 27° SW 23:50:49 35° W 23:54:53 10° NNW
GENESIS II 4.3 23:49:40 29° WSW 23:51:22 63° NW 23:55:00 10° NE
Cosmos 2263 Rocket 4.3 23:51:00 10° ESE 23:53:08 12° E 23:55:16 10° ENE
Cosmos 1503 Rocket 4.1 23:51:55 32° S 23:54:24 67° ESE 23:59:41 10° NNE
Okean 2 Rocket 3.2 23:51:02 10° N 23:55:29 69° ENE 23:57:29 32° SSE
